This demonstration page uses our WeatherBlox Daily Observations layout. Learn more.

38.89511, -77.03637

Hourly Observations for June 6, 2020

Temp ( °F °C ) Dew Point ( °F °C ) Humidity (%) Winds ( mph kmh ) Pressure ( in mb ) Visibility ( mi km ) Precip ( " mm )
12:52 am 00:52 Cloudy 73 22.8 71 21.7 94 94 SSW 3 6 29.87 1012 10 16.0934 0 0
1:52 am 01:52 Cloudy 74 23.3 71 21.7 91 91 SSW 5 7 29.85 1011 10 16.0934 0 0
2:52 am 02:52 Cloudy 73 22.8 71 21.7 94 94 SSW 6 9 29.85 1011 10 16.0934 0.001 0.001
3:33 am 03:33 Cloudy 73 22.8 71 21.7 94 94 WSW 5 7 29.86 1011 10 16.0934 0 0
3:52 am 03:52 Mostly Cloudy 73 22.8 71 21.7 94 94 SW 5 7 29.86 1011 10 16.0934 0 0
4:28 am 04:28 Mostly Cloudy 72 22.2 70 21.1 94 94 WSW 5 7 29.85 1011 10 16.0934 0 0
4:52 am 04:52 Mostly Cloudy 72 22.2 70 21.1 94 94 SSW 3 6 29.85 1011 10 16.0934 0 0
5:52 am 05:52 Mostly Cloudy 72 22.2 70 21.1 94 94 WSW 3 6 29.86 1011 10 16.0934 0 0
6:52 am 06:52 Mostly Cloudy 72 22.2 70 21.1 94 94 W 5 7 29.86 1011 10 16.0934 0 0
7:52 am 07:52 Mostly Cloudy 76 24.4 71 21.7 85 85 WNW 5 7 29.87 1012 10 16.0934 0 0
8:52 am 08:52 Mostly Cloudy 79 26.1 70 21.1 74 74 NNW 8 13 29.88 1012 10 16.0934 0 0
9:52 am 09:52 Mostly Cloudy 82 27.8 71 21.7 69 69 NW 9 15 29.88 1012 10 16.0934 0 0
10:52 am 10:52 Mostly Cloudy 83 28.3 70 21.1 65 65 NNW 9 15 29.88 1012 10 16.0934 0 0
11:52 am 11:52 Mostly Cloudy 85 29.4 71 21.7 63 63 NW 10 17 29.87 1012 10 16.0934 0 0
12:52 pm 12:52 Mostly Cloudy 86 30 71 21.7 61 61 NNW 10 17 29.85 1011 10 16.0934 0 0
1:52 pm 13:52 Mostly Cloudy 89 31.7 71 21.7 55 55 WNW 10 17 29.84 1011 10 16.0934 0 0
2:52 pm 14:52 Mostly Cloudy 89 31.7 69 20.6 52 52 W 10 17 29.83 1010 10 16.0934 0 0
3:52 pm 15:52 Mostly Cloudy 90 32.2 68 20 48 48 W 13 20 29.8 1009 10 16.0934 0 0
4:52 pm 16:52 Mostly Cloudy 90 32.2 66 18.9 45 45 W 17 28 29.79 1009 10 16.0934 0 0
5:52 pm 17:52 Partly Cloudy 91 32.8 63 17.2 39 39 NW 10 17 29.78 1008 10 16.0934 0 0
6:52 pm 18:52 Partly Cloudy 89 31.7 61 16.1 39 39 NW 15 24 29.79 1009 10 16.0934 0 0
7:52 pm 19:52 Mostly Cloudy 87 30.6 58 14.4 37 37 NW 10 17 29.78 1009 10 16.0934 0 0
8:52 pm 20:52 Mostly Cloudy 84 28.9 59 15 43 43 NNW 10 17 29.79 1009 10 16.0934 0 0
9:52 pm 21:52 Partly Cloudy 82 27.8 56 13.3 41 41 NNW 12 19 29.82 1010 10 16.0934 0 0
10:52 pm 22:52 Partly Cloudy 80 26.7 55 12.8 42 42 NNW 13 20 29.83 1010 10 16.0934 0 0
11:52 pm 23:52 Mostly Cloudy 78 25.6 53 11.7 42 42 NNW 8 13 29.85 1011 10 16.0934 0 0

Powered by AerisWeather